www.pogodaiklimat.ru

Погода и климат >> Архив погоды >> Вьетнам >> Хюэ


ПОГОДА в Хюэ

  • Прогноз погоды в Хюэ
  • Монитор погоды в Хюэ

АРХИВ ПОГОДЫ в Хюэ

Время (UTC), дата Ветер
(напр.,м/с)
 
Видим.   Явления Облачность Т
(С)
Тd
(С)
f
(%)
Тe
(С)
Тes
(С)
Комфортность P
(гПа)
Po
(гПа)
Тmin
(С)
Tmax
(С)
R
(мм)
R24
(мм)
S
(см)
09 10.07 З 4 20 км 9/9 1500 м
[Sc]
+34.2 +20.8 46 +41 +42 опасность
перегрева
1003.4 1002.4
12 10.07 Ю 1 20 км 9/5 1500 м
[Sc Cs]
+30.4 +23.4 66 +41 +41 опасность
перегрева
1004.7 1003.7 +35.0
15 10.07 Ю 1 20 км 9/9 1500 м
[Sc Cs]
+29.8 +22.8 66 +39 +39 очень
душно
1006.8 1005.8
18 10.07 штиль 0 20 км 9/0
[Cs]
+27.5 +23.8 80 +38 +38 очень
душно
1006.1 1005.1
21 10.07 штиль 0 20 км 9/0
[Cs]
+25.6 +23.8 90 +35 +35 очень
душно
1006.0 1005.0
00 11.07 штиль 0 20 км 9/0
[Cs]
+28.8 +23.9 75 +40 +43 очень
душно
1007.6 1006.6 +25.3
03 11.07 Ю 1 20 км 9/3 1500 м
[Sc Cs]
+35.0 +23.5 51 +46 +58 опасность
перегрева
1007.8 1006.8
06 11.07 СВ 1 20 км 9/3 600 м
[Cu Sc Ac trans Cs]
+36.8 +24.4 49 +49 +58 опасность
перегрева
1006.3 1005.3
09 11.07 В 3 20 км 9/3 600 м
[Cb cap Cs]
+35.2 +25.5 57 +50 +52 опасность
перегрева
1005.4 1004.4
12 11.07 Ю 2 20 км 9/3 600 м
[Cu Sc Cs]
+30.8 +25.1 72 +45 +45 опасность
перегрева
1007.2 1006.2 +38.0
15 11.07 штиль 0 20 км 9/0
[Cs]
+28.8 +26.1 85 +43 +43 опасность
перегрева
1008.5 1007.5
18 11.07 штиль 0 20 км 9/1 1500 м
[Sc Cs]
+27.2 +25.6 91 +40 +40 очень
душно
1006.9 1005.9
21 11.07 штиль 0 20 км 9/0
[Cs]
+26.2 +24.3 89 +36 +36 очень
душно
1006.4 1005.4
00 12.07 штиль 0 20 км 9/0
[Cs]
+28.0 +24.5 81 +39 +43 очень
душно
1007.8 1006.8 +25.2
03 12.07 Ю 1 20 км 9/3 1500 м
[Sc Cs]
+35.6 +23.6 50 +46 +59 опасность
перегрева
1007.0 1006.0
06 12.07 СВ 2 20 км 9/3 600 м
[Cu Sc Cs]
+37.4 +25.7 51 +52 +63 опасность
перегрева
1005.3 1004.3
09 12.07 В 2 20 км 9/3 600 м
[Cu Sc Cs]
+36.2 +24.6 51 +49 +52 опасность
перегрева
1003.8 1002.8
12 12.07 В 1 20 км 9/3 600 м
[Cb cap Cs]
+32.0 +26.1 71 +48 +48 опасность
перегрева
1005.7 1004.7 +37.4
15 12.07 Ю 1 20 км 9/0
[Cs]
+29.4 +23.7 71 +40 +40 очень
душно
1007.2 1006.2
18 12.07 ЮВ 1 20 км 9/0
[Cs]
+27.9 +25.3 86 +41 +41 опасность
перегрева
1005.8 1004.8
21 12.07 Ю 1 20 км 9/0
[Cs]
+27.2 +24.6 86 +39 +39 очень
душно
1005.2 1004.2
00 13.07 Ю 1 20 км 9/0
[Cs]
+29.6 +24.0 72 +41 +44 опасность
перегрева
1005.5 1004.5 +26.2
03 13.07 З 5 20 км 9/3 1500 м
[Sc Cs]
+35.6 +24.3 52 +48 +53 опасность
перегрева
1006.2 1005.2
06 13.07 ЮЗ 2 20 км 9/3 600 м
[Cu Sc Cs]
+37.7 +23.6 45 +49 +60 опасность
перегрева
1003.3 1002.3
09 13.07 Ю 2 20 км 9/3 1500 м
[Sc Cs]
+38.2 +23.0 42 +48 +51 опасность
перегрева
1001.4 1000.4
12 13.07 Ю 1 20 км 9/3 1500 м
[Sc Cs]
+31.8 +27.4 78 +51 +51 опасность
перегрева
1003.2 1002.2 +38.4
15 13.07 штиль 0 20 км 9/3 600 м
[Cu med, cong Cs]
+29.0 +27.6 92 +47 +47 опасность
перегрева
1005.0 1004.0
18 13.07 штиль 0 20 км 9/0
[Cs]
+27.4 +26.2 93 +41 +41 опасность
перегрева
1004.2 1003.2
21 13.07 ЮВ 1 20 км 9/0
[Cs]
+27.0 +23.8 83 +37 +37 очень
душно
1003.0 1002.0
00 14.07 штиль 0 20 км 9/0
[Cs]
+27.8 +24.8 84 +40 +43 очень
душно
1003.4 1002.4 +26.0
03 14.07 З 2 20 км 9/1 600 м
[Cu med, cong Cs]
+34.9 +24.9 56 +48 +61 опасность
перегрева
1003.4 1002.4
06 14.07 З 3 20 км 9/3 600 м
[Cu med, cong Cs]
+37.3 +24.0 47 +49 +59 опасность
перегрева
1002.0 1001.0
09 14.07 ЮВ 1 20 км 9/4 600 м
[Cu Sc Cs]
+35.6 +25.2 55 +49 +53 опасность
перегрева
1000.6 999.6
12 14.07 штиль 0 20 км 9/1 1500 м
[Sc Cs]
+31.5 +26.9 77 +49 +49 опасность
перегрева
1001.7 1000.7 +38.5
15 14.07 штиль 0 20 км 9/0
[Cs]
+29.0 +26.6 87 +45 +45 опасность
перегрева
1003.8 1002.8
18 14.07 штиль 0 20 км 9/0
[Cs]
+27.6 +25.9 90 +41 +41 опасность
перегрева
1003.3 1002.3
21 14.07 штиль 0 20 км 9/0
[Cs]
+26.8 +24.5 87 +38 +38 очень
душно
1001.8 1000.8
00 15.07 штиль 0 20 км 9/0
[Cs]
+28.2 +24.4 80 +40 +43 очень
душно
1002.8 1001.8 +25.7
03 15.07 СЗ 1 20 км 9/0
[Cs]
+35.0 +23.9 53 +47 +64 опасность
перегрева
1003.2 1002.2
06 15.07 В 3 20 км 9/4 600 м
[Cu med, cong Cs]
+36.0 +25.2 54 +50 +58 опасность
перегрева
1001.5 1000.5
09 15.07 СВ 2 20 км 9/3 600 м
[Cu med, cong Cs]
+34.6 +25.6 60 +50 +53 опасность
перегрева
1000.3 999.3
12 15.07 Ю 6 20 км гроза без осадков 9/9
[Cb cap]
+28.2 +24.3 79 +39 +39 очень
душно
1003.7 1002.7 +37.3
15 15.07 Ю 1 10 км {ливн. осадки} 9/9 600 м
[Cu Sc]
+24.7 +23.6 94 +34 +34 очень
душно
1004.6 1003.6
18 15.07 штиль 0 10 км {ливн. осадки} 9/4 600 м
[Cu Sc Cs]
+25.3 +23.8 91 +34 +34 очень
душно
1003.8 1002.8 4
21 15.07 штиль 0 10 км 9/3 1500 м
[Sc Ac trans Cs]
+25.0 +23.6 92 +34 +34 очень
душно
1003.0 1002.0
00 16.07 Ю 1 20 км 9/0
[Cs]
+27.6 +25.0 86 +40 +43 очень
душно
1004.0 1003.0 +25.0 4
03 16.07 В 1 20 км 9/1 600 м
[Cu med, cong Cs]
+34.5 +24.7 57 +48 +63 опасность
перегрева
1004.0 1003.0
06 16.07 СВ 2 20 км 9/3 600 м
[Cb calv Cs]
+35.7 +24.0 51 +47 +59 опасность
перегрева
1002.1 1001.1 4
09 16.07 В 2 20 км 8/3 600 м
[Cb cap Cs]
+35.0 +25.8 59 +50 +54 опасность
перегрева
1000.7 999.7
12 16.07 штиль 0 20 км зарница 9/3
[Cb cap As op Cs]
+31.1 +25.6 73 +46 +46 опасность
перегрева
1002.8 1001.8 +36.4 4
15 16.07 штиль 0 20 км 9/3 600 м
[Cu Sc Ac trans Cs]
+28.1 +25.5 86 +41 +41 опасность
перегрева
1004.3 1003.3
18 16.07 ЮЗ 1 20 км 9/3 1500 м
[Sc Ac trans Cs]
+27.8 +23.1 76 +37 +37 очень
душно
1003.0 1002.0
21 16.07 З 1 20 км 9/0
[Cs]
+27.4 +23.1 77 +37 +37 очень
душно
1001.7 1000.7
00 17.07 ЮЗ 1 20 км 9/4 1500 м
[Sc Cs]
+27.4 +24.8 86 +39 +41 очень
душно
1003.0 1002.0 +25.7
03 17.07 Ю 1 20 км 9/9 600 м
[Cu Sc]
+33.4 +24.6 60 +46 +48 опасность
перегрева
1003.4 1002.4

 

Местоположение метеостанции Хюэ (Вьетнам): широта 16.43 долгота 107.58 высота над уровнем моря 9 м.

В архиве по умолчанию представлена погода в Хюэ за последнюю неделю. Архивные данные за месяц целиком и за предыдущие месяцы, начиная с января 2011 года, Вы можете получить, выбрав интересующий диапазон дат из раскрывающегося списка и нажав кнопку "Ввод!".


*Определитесь, кто Вы:
робот инопланетянин человек

Внимание! Время в таблицах - всемирное. Для получения местного времени необходимо прибавить поправку, которая равна 7 ч.

Смотрите также архив погоды в соседних городах и на ближайших метеорологических станциях:

Погода в Дананге (Вьетнам) (91 км)
Погода в Сараване (Лаос) (148 км)
Погода в Секонге (Лаос) (150 км)
Погода в Донгхое (Вьетнам) (157 км)
Погода в Куангнгае (Вьетнам) (193 км)
Погода в Аттапы (Лаос) (197 км)
Погода в Паксе (Лаос) (241 км)
Погода в Плейку (Вьетнам) (276 км)
Погода в Сено (Лаос) (276 км)
Погода в Хатине (Вьетнам) (278 км)

Пояснения к столбцам:

Ветер - указаны скорость ветра в м/с - средняя за 10 мин, порывы в срок и между сроками (в фигурных скобках) и направление, откуда дует ветер: С - северный, СВ - северо-восточный, В - восточный, ЮВ - юго-восточный, Ю - южный, ЮЗ - юго-западный, З - западный, СЗ - северо-западный.
Видимость - горизонтальная дальность видимости в метрах или километрах. При видимости от 1 до 10 км при отсутствии осадков обычно наблюдается дымка, при ухудшении видимости до 1 км и менее - туман. В сухую погоду видимость может ухудшаться дымом, пылью или мглою.
Явления - указаны атмосферные явления, наблюдавшиеся в срок или в последний час перед сроком; фигурными скобками обозначены явления, наблюдавшиеся между сроками (за 1-3 часа до срока); квадратными скобками обозначены град или гололедные отложения с указанием их диаметра в мм.
Облачность - указаны через наклонную черту общая и нижняя облачность в баллах и высота нижней границы облаков в метрах; квадратными скобками обозначены формы облаков: Ci - перистые, Cs - перисто-слоистые, Cc - перисто-кучевые, Ac - высококучевые, As - высокослоистые, Sc - слоисто-кучевые, Ns - слоисто-дождевые, Cu - кучевые, Cb - кучево-дождевые. Подробнее классификацию облаков см. в Атласе облаков (PDF).
T - Температура воздуха - температура, измеренная на высоте 2 м над землей.
Td - Температура точки росы - температура, при понижении до которой содержащийся в воздухе водяной пар достигнет насыщения.
f - Относительная влажность воздуха - влажноcть воздуха, измеренная на высоте 2 м над землей.
Te - Эффективная температура - температура, которую ощущает одетый по сезону человек в тени. Характеристика душности погоды. При расчете учитывается влияние влажности воздуха и скорости ветра на теплоощущения человека.
Tes - Эффективная температура на солнце - температура, которую ощущает человек, с поправкой на солнечный нагрев. Характеристика знойности погоды. Зависит от высоты солнца над горизонтом, облачности и скорости ветра. Ночью, в пасмурную погоду, а также при ветре 12 м/с и более поправка равна нулю.
P - Атмосферное давление - приведенное к уровню моря атмосферное давление.
Po - Атмосферное давление - измеренное на уровне метеостанции атмосферное давление.
Tmin - Минимальная температура - минимум температуры воздуха на высоте 2 м над землей.
Tmax - Максимальная температура - максимум температуры воздуха на высоте 2 м над землей.
R - Количество осадков - Количество выпавших осадков за период времени, мм. При наведении курсора мыши на число - период времени, за который выпало указанное количество осадков.
R24 - Количество осадков - Количество выпавших осадков за 24 часа, мм.
S - Снежный покров - Высота снежного покрова, см. При наведении курсора мыши на число - состояние снежного покрова и степень покрытия местности в баллах.